[[{"header":{"parameterUnit":"m.s-1","parameterCategory":1,"la1":30.2991,"la2":30.254,"lo1":-89.0895,"lo2":-89.0444,"dx":0.0017,"dy":0.0017,"nx":28,"ny":28,"refTime":"2022-11-21T15:00:00:Z","depth":0,"parameterNumber":2,"parameterNumberName":"U-component_of_WINDS"},"data":[0,0,0,0,0,0,0,0,0,0,0,0,0,0,0,0,0,0,0,0,0,0,0,0,0,0,0,0,0,0,0,0,0,0,0,0,0,0,0,0,0,0,0,0,0,0,0,0,0,0,0,0,0,0,0,0,0,0,-2.2767,-2.2768,0,-2.2815,-2.2816,-2.2816,-2.2732,-2.2729,-2.2726,-2.2724,-2.2775,-2.2779,-2.2783,0,0,0,0,0,0,0,0,0,0,0,0,0,-2.2603,-2.2607,-2.2767,-2.2768,-2.2768,-2.2815,-2.2816,-2.2817,-2.2732,-2.2729,-2.2725,-2.2722,-2.2774,-2.2779,-2.2783,0,0,0,0,0,0,0,0,0,0,0,0,0,-2.2665,-2.2608,-2.2767,-2.2732,-2.2729,-2.2815,-2.2816,-2.2817,-2.2733,-2.2729,-2.2725,-2.2721,-2.2772,-2.2778,-2.2784,-2.2907,0,0,-2.2803,-2.2805,0,0,0,0,0,0,0,0,-2.2662,-2.2671,-2.2736,-2.2734,-2.2732,-2.2763,-2.2777,-2.2847,-2.2734,-2.2732,-2.2723,-2.2719,-2.2775,-2.278,-2.2799,-2.2909,-2.2912,-2.2803,-2.2807,-2.2809,-2.2811,0,0,0,0,0,0,0,-2.2658,-2.2669,-2.2786,-2.2738,-2.2735,-2.2714,-2.2718,-2.279,-2.2777,-2.2732,-2.2726,-2.2732,-2.2773,-2.2793,-2.2799,-2.2912,-2.2803,-2.2808,-2.2812,-2.2814,-2.3126,-2.313,0,0,0,0,0,0,-2.2658,-2.2666,-2.2785,-2.2788,-2.2685,-2.2721,-2.2725,-2.2757,-2.2776,-2.2774,-2.2736,-2.2728,-2.2785,-2.2792,-2.2801,-2.2946,-2.2809,-2.2815,-2.2818,-2.3121,-2.3127,-2.3132,0,0,0,0,0,0,-2.2654,-2.2669,-2.2783,-2.2725,-2.2738,-2.2728,-2.2765,-2.2761,-2.2781,-2.2779,-2.2776,-2.2759,-2.2782,-2.2792,-2.2881,-2.2947,-2.2818,-2.2823,-2.3116,-2.3123,-2.313,-2.3238,0,0,0,0,0,0,-2.265,-2.2668,-2.2715,-2.2727,-2.2741,-2.2862,-2.2769,-2.2765,-2.2792,-2.2782,-2.28,-2.2799,-2.2779,-2.2873,-2.2887,-2.2953,-2.2828,-2.311,-2.3119,-2.3127,-2.3229,-2.3248,-2.3265,0,0,0,0,0,-2.2644,-2.2744,-2.2718,-2.2732,-2.2799,-2.2866,-2.2875,-2.2849,-2.2797,-2.2844,-2.2842,-2.2799,-2.2937,-2.2882,-2.2898,-2.2967,-2.3106,-2.3117,-2.3127,-2.3221,-2.3245,-2.3264,0,0,0,0,0,0,-2.2741,-2.2745,-2.2716,-2.2822,-2.2844,-2.2852,-2.291,-2.2875,-2.2913,-2.2903,-2.287,-2.2875,-2.297,-2.2977,-2.2916,-2.3087,-2.3013,-2.3027,-2.3079,-2.3101,-2.3119,-2.3116,-2.2833,0,0,0,0,0,-2.2775,-2.2828,-2.2829,-2.2922,-2.2935,-2.2921,-2.2949,-2.2927,-2.2949,-2.2959,-2.2963,-2.2987,-2.3035,-2.3068,-2.3113,-2.3229,-2.3232,-2.3284,-2.3302,-2.3316,-2.333,-2.3391,-2.3415,-2.3166,-2.3166,-2.3166,0,0,-2.2845,-2.2854,-2.289,-2.2942,-2.2957,-2.3013,-2.293,-2.2993,-2.3035,-2.2968,-2.3053,-2.3057,-2.3081,-2.3184,-2.3229,-2.3192,-2.3398,-2.333,-2.3341,-2.3347,-2.3405,-2.3428,-2.3449,-2.3174,-2.3172,-2.3171,0,0,-2.3002,-2.3014,-2.3093,-2.3109,-2.3132,-2.3122,-2.3141,-2.3153,-2.3154,-2.3237,-2.3188,-2.3238,-2.3322,-2.3341,-2.3362,-2.3525,-2.3486,-2.354,-2.3635,-2.3696,-2.3715,-2.3732,-2.3791,-2.3813,-2.3553,-2.3553,-2.3554,0,-2.3087,-2.317,-2.3139,-2.3206,-2.323,-2.3171,-2.3252,-2.3269,-2.3306,-2.3325,-2.3282,-2.3387,-2.3399,-2.3505,-2.3545,-2.3563,-2.3585,-2.3539,-2.3715,-2.3732,-2.3747,-2.3803,-2.3825,-2.356,-2.3559,-2.3558,-2.3558,0,-2.3273,-2.3331,-2.3393,-2.3429,-2.346,-2.3534,-2.3514,-2.355,-2.3525,-2.3519,-2.3605,-2.3617,-2.3663,-2.3686,-2.3663,-2.379,-2.3766,-2.372,-2.3645,-2.3778,-2.383,-2.3851,-2.3569,-2.3567,-2.3565,-2.3563,0,0,-2.3494,-2.3511,-2.3535,-2.355,-2.357,-2.3615,-2.3686,-2.373,-2.3761,-2.3788,-2.3847,-2.3919,-2.3876,-2.39,-2.3878,-2.3931,-2.406,-2.3878,-2.3878,-2.3912,-2.4201,-2.4237,-2.4262,-2.4033,-2.4037,-2.4041,-2.4199,0,-2.3651,-2.3773,-2.3746,-2.3866,-2.3919,-2.3863,-2.3925,-2.3944,-2.394,-2.3985,-2.3981,-2.4033,-2.3972,-2.3986,-2.4036,-2.4034,-2.4118,-2.4022,-2.4089,-2.4092,-2.4086,-2.4289,-2.4327,-2.4476,-2.4219,-2.4223,-2.4225,0,-2.3851,-2.3885,-2.401,-2.4021,-2.4042,-2.4098,-2.4136,-2.4179,-2.42,-2.4193,-2.422,-2.4187,-2.4257,-2.418,-2.4277,-2.4212,-2.4238,-2.4241,-2.4246,-2.4253,-2.4168,-2.4302,-2.4523,-2.4546,-2.4257,-2.4254,-2.4252,0,-2.4001,-2.4078,-2.4162,-2.4177,-2.4192,-2.4233,-2.4241,-2.4257,-2.4285,-2.4318,-2.4336,-2.4377,-2.44,-2.4433,-2.4413,-2.4359,-2.4513,-2.4434,-2.451,-2.4511,-2.4547,-2.4545,-2.4777,-2.4561,-2.4561,-2.4561,-2.456,0,-2.418,-2.4259,-2.423,-2.4282,-2.4369,-2.4337,-2.4424,-2.4425,-2.444,-2.4492,-2.4445,-2.4495,-2.4464,-2.4511,-2.4496,-2.4578,-2.4589,-2.4586,-2.4581,-2.4591,-2.4592,-2.4609,-2.4598,-2.4566,-2.4565,-2.4564,-2.4563,0,-2.4363,-2.4347,-2.4435,-2.4442,-2.4445,-2.4509,-2.4514,-2.4563,-2.4555,-2.4621,-2.4635,-2.4622,-2.4675,-2.4658,-2.4715,-2.4704,-2.4809,-2.4791,-2.4803,-2.4799,-2.4876,-2.4869,-2.5127,-2.5159,-2.4923,-2.4925,-2.4927,0,-2.4479,-2.4539,-2.4551,-2.4582,-2.4593,-2.4644,-2.4672,-2.4643,-2.4674,-2.4701,-2.4747,-2.4796,-2.4833,-2.4921,-2.4917,-2.4961,-2.4943,-2.503,-2.4949,-2.4957,-2.4946,-2.4943,-2.4949,-2.5047,-2.505,-2.5052,-2.5054,0,-2.4687,-2.4676,-2.4718,-2.4758,-2.4792,-2.4822,-2.4847,-2.4875,-2.4848,-2.4885,-2.4938,-2.4968,-2.5025,-2.5075,-2.5113,-2.5122,-2.5084,-2.5079,-2.5099,-2.5111,-2.5116,-2.5115,-2.4848,-2.5074,-2.5072,-2.507,-2.5069,-2.5069,-2.4841,-2.4891,-2.4908,-2.4956,-2.4972,-2.4997,-2.5043,-2.504,-2.5083,-2.5128,-2.5108,-2.517,-2.5188,-2.5236,-2.525,-2.5298,-2.5264,-2.5293,-2.53,-2.5308,-2.5319,-2.5107,-2.5304,-2.5304,-2.5303,-2.5303,-2.5302,0,-2.5048,-2.5055,-2.51,-2.5136,-2.5175,-2.5134,-2.516,-2.5195,-2.5249,-2.5269,-2.5307,-2.5368,-2.5415,-2.5415,-2.5459,-2.5497,-2.5481,-2.551,-2.5507,-2.551,-2.5346,-2.5324,-2.5522,-2.5522,-2.5522,-2.5522,-2.5522,-2.5522,-2.516,-2.5242,-2.5233,-2.5322,-2.5329,-2.5389,-2.5407,-2.543,-2.5445,-2.5516,-2.5554,-2.5553,-2.5565,-2.5609,-2.5651,-2.5649,-2.5668,-2.5704,-2.5696,-2.5543,-2.5522,-2.5501,-2.5481,-2.5708,-2.5708,-2.5857,-2.5858,-2.5859]},{"header":{"parameterUnit":"m.s-1","parameterCategory":1,"la1":30.2991,"la2":30.254,"lo1":-89.0895,"lo2":-89.0444,"dx":0.0017,"dy":0.0017,"nx":28,"ny":28,"refTime":"2022-11-21T15:00:00:Z","depth":0,"parameterNumber":3,"parameterNumberName":"V-component_of_WINDS"},"data":[0,0,0,0,0,0,0,0,0,0,0,0,0,0,0,0,0,0,0,0,0,0,0,0,0,0,0,0,0,0,0,0,0,0,0,0,0,0,0,0,0,0,0,0,0,0,0,0,0,0,0,0,0,0,0,0,0,0,-5.279,-5.279,0,-5.2858,-5.2859,-5.286,-5.2779,-5.2776,-5.2773,-5.2771,-5.2837,-5.2841,-5.2846,0,0,0,0,0,0,0,0,0,0,0,0,0,-5.2584,-5.2588,-5.279,-5.279,-5.2791,-5.2858,-5.2859,-5.286,-5.278,-5.2776,-5.2773,-5.2769,-5.2835,-5.2841,-5.2846,0,0,0,0,0,0,0,0,0,0,0,0,0,-5.2665,-5.259,-5.2789,-5.2759,-5.2757,-5.2858,-5.2859,-5.286,-5.2781,-5.2776,-5.2772,-5.2767,-5.2834,-5.284,-5.2847,-5.2979,0,0,-5.2868,-5.2871,0,0,0,0,0,0,0,0,-5.2661,-5.2673,-5.2763,-5.2762,-5.276,-5.2806,-5.2811,-5.29,-5.2782,-5.2772,-5.277,-5.2765,-5.283,-5.2837,-5.2859,-5.2982,-5.2985,-5.2869,-5.2873,-5.2876,-5.2878,0,0,0,0,0,0,0,-5.2655,-5.2669,-5.2816,-5.2764,-5.2762,-5.2741,-5.2747,-5.2827,-5.2825,-5.2772,-5.2767,-5.2776,-5.2828,-5.2853,-5.286,-5.2986,-5.2868,-5.2874,-5.2879,-5.2881,-5.3218,-5.3223,0,0,0,0,0,0,-5.2653,-5.2665,-5.2814,-5.2819,-5.2698,-5.2748,-5.2756,-5.2795,-5.2824,-5.2824,-5.278,-5.2772,-5.2844,-5.2852,-5.2862,-5.3017,-5.2876,-5.2882,-5.2886,-5.3213,-5.3219,-5.3224,0,0,0,0,0,0,-5.2649,-5.2668,-5.2812,-5.274,-5.2757,-5.2757,-5.2802,-5.2799,-5.2824,-5.283,-5.2828,-5.2806,-5.284,-5.2853,-5.295,-5.3019,-5.2885,-5.2891,-5.3208,-5.3215,-5.3222,-5.333,0,0,0,0,0,0,-5.2644,-5.2667,-5.2718,-5.2742,-5.2761,-5.2901,-5.2806,-5.2804,-5.2836,-5.2827,-5.2854,-5.2854,-5.2838,-5.2941,-5.2957,-5.3026,-5.2897,-5.3201,-5.3211,-5.322,-5.332,-5.334,-5.3357,0,0,0,0,0,-5.2637,-5.2745,-5.2721,-5.274,-5.2826,-5.2905,-5.2915,-5.2895,-5.2842,-5.2893,-5.2896,-5.2853,-5.3009,-5.2951,-5.2969,-5.3041,-5.3197,-5.3208,-5.3219,-5.3312,-5.3336,-5.3356,0,0,0,0,0,0,-5.2728,-5.2748,-5.2721,-5.2841,-5.2872,-5.2891,-5.2954,-5.2922,-5.2967,-5.2956,-5.2928,-5.2935,-5.3039,-5.3049,-5.2985,-5.3169,-5.3094,-5.3109,-5.3158,-5.3181,-5.3199,-5.3194,-5.2902,0,0,0,0,0,-5.2763,-5.2826,-5.284,-5.2944,-5.2961,-5.2955,-5.2989,-5.2971,-5.3001,-5.3013,-5.3024,-5.3053,-5.3108,-5.3145,-5.3197,-5.3321,-5.3325,-5.3379,-5.3397,-5.3412,-5.3426,-5.349,-5.3514,-5.326,-5.326,-5.326,0,0,-5.2834,-5.2852,-5.2894,-5.2963,-5.2984,-5.3049,-5.2967,-5.3039,-5.3087,-5.3024,-5.3117,-5.3125,-5.3156,-5.3268,-5.3317,-5.328,-5.3496,-5.3426,-5.3438,-5.3443,-5.3504,-5.3528,-5.3549,-5.3268,-5.3266,-5.3265,0,0,-5.2996,-5.3018,-5.3106,-5.313,-5.3164,-5.3159,-5.3181,-5.3205,-5.3208,-5.3301,-5.3255,-5.331,-5.3406,-5.343,-5.3455,-5.3625,-5.3586,-5.3642,-5.3738,-5.3801,-5.3821,-5.3839,-5.3898,-5.392,-5.3656,-5.3656,-5.3656,0,-5.308,-5.3178,-5.3156,-5.3232,-5.3262,-5.3209,-5.3298,-5.3321,-5.337,-5.3391,-5.3349,-5.3468,-5.3485,-5.36,-5.3642,-5.3664,-5.3686,-5.3639,-5.3821,-5.3838,-5.3854,-5.391,-5.3933,-5.3662,-5.3662,-5.3661,-5.366,0,-5.3278,-5.3347,-5.3414,-5.3463,-5.3501,-5.3583,-5.3572,-5.3613,-5.3591,-5.3591,-5.3685,-5.3704,-5.3757,-5.3783,-5.3762,-5.3895,-5.3871,-5.3825,-5.3749,-5.3885,-5.3937,-5.3959,-5.3672,-5.3669,-5.3667,-5.3666,0,0,-5.3501,-5.3537,-5.3562,-5.3583,-5.3616,-5.3668,-5.3746,-5.3799,-5.3834,-5.3869,-5.3933,-5.4015,-5.3973,-5.4001,-5.3982,-5.4038,-5.417,-5.3985,-5.3985,-5.4018,-5.4316,-5.4349,-5.4375,-5.4145,-5.4149,-5.4152,-5.4312,0,-5.3663,-5.3801,-5.3783,-5.3914,-5.3976,-5.3926,-5.3993,-5.402,-5.4021,-5.4072,-5.4072,-5.4131,-5.4071,-5.4088,-5.4141,-5.4143,-5.4229,-5.4131,-5.4202,-5.4205,-5.4196,-5.4402,-5.4438,-5.4589,-5.4333,-5.4336,-5.4339,0,-5.3872,-5.3915,-5.4053,-5.4075,-5.41,-5.4162,-5.4209,-5.4259,-5.4287,-5.4284,-5.4315,-5.4286,-5.4362,-5.4285,-5.4389,-5.4322,-5.435,-5.4355,-5.4361,-5.4366,-5.428,-5.4412,-5.4637,-5.4659,-5.4371,-5.4369,-5.4366,0,-5.4019,-5.4112,-5.4206,-5.4225,-5.4254,-5.4298,-5.4312,-5.4336,-5.4369,-5.4409,-5.443,-5.4478,-5.4504,-5.4541,-5.4525,-5.4471,-5.4631,-5.4553,-5.4629,-5.463,-5.4665,-5.4663,-5.4896,-5.4685,-5.4684,-5.4684,-5.4683,0,-5.4202,-5.4288,-5.4272,-5.433,-5.4424,-5.4401,-5.4494,-5.4501,-5.4523,-5.458,-5.4539,-5.4593,-5.4569,-5.462,-5.4608,-5.4695,-5.4707,-5.4705,-5.4701,-5.4709,-5.4709,-5.4726,-5.4715,-5.469,-5.4689,-5.4687,-5.4686,0,-5.4382,-5.4375,-5.4474,-5.4493,-5.45,-5.4569,-5.4584,-5.4637,-5.4635,-5.4707,-5.4722,-5.4718,-5.4777,-5.4765,-5.4829,-5.482,-5.4929,-5.4912,-5.492,-5.4916,-5.4992,-5.4984,-5.5244,-5.5276,-5.5045,-5.5047,-5.5049,0,-5.4499,-5.4564,-5.459,-5.4626,-5.4643,-5.4701,-5.4734,-5.4714,-5.475,-5.4786,-5.4835,-5.489,-5.4933,-5.5028,-5.503,-5.5078,-5.5061,-5.5149,-5.5068,-5.5074,-5.5061,-5.5057,-5.5063,-5.5165,-5.5167,-5.5169,-5.5171,0,-5.4706,-5.47,-5.475,-5.4799,-5.484,-5.4878,-5.4911,-5.4942,-5.4924,-5.4966,-5.5026,-5.5059,-5.5125,-5.5179,-5.5224,-5.5236,-5.52,-5.5197,-5.5216,-5.5225,-5.5226,-5.5225,-5.4963,-5.5191,-5.5189,-5.5187,-5.5186,-5.5185,-5.4858,-5.4913,-5.4939,-5.4996,-5.5019,-5.5051,-5.5102,-5.5106,-5.5156,-5.5208,-5.5192,-5.526,-5.5285,-5.5341,-5.5359,-5.541,-5.5377,-5.5406,-5.5413,-5.5421,-5.5429,-5.5219,-5.5418,-5.5417,-5.5417,-5.5416,-5.5416,0,-5.5062,-5.5077,-5.513,-5.5178,-5.5222,-5.5186,-5.522,-5.5259,-5.532,-5.5347,-5.539,-5.5458,-5.551,-5.5516,-5.5565,-5.5604,-5.5589,-5.5618,-5.5614,-5.5617,-5.5457,-5.5434,-5.5629,-5.5629,-5.5629,-5.5629,-5.5629,-5.5629,-5.5174,-5.5264,-5.526,-5.5361,-5.5374,-5.5442,-5.5464,-5.5492,-5.5513,-5.5592,-5.5635,-5.5639,-5.5657,-5.5706,-5.5752,-5.5752,-5.5771,-5.5806,-5.58,-5.565,-5.5629,-5.5608,-5.5587,-5.5811,-5.5811,-5.5956,-5.5957,-5.5958]}]]